TimeHST,TemperatureF,Dew PointF,Humidity,Sea Level PressureIn,VisibilityMPH,Wind Direction,Wind SpeedMPH,Gust SpeedMPH,PrecipitationIn,Events,Conditions,WindDirDegrees,DateUTC
12:53 AM,71.1,64.0,78,29.98,10.0,SW,4.6,-,N/A,,Mostly Cloudy,230,2013-10-23 10:53:00
1:37 AM,71.1,64.9,81,29.98,10.0,SE,3.5,-,N/A,,Overcast,140,2013-10-23 11:37:00
1:49 AM,71.6,64.4,78,29.97,10.0,Calm,Calm,-,N/A,,Overcast,0,2013-10-23 11:49:00
1:53 AM,71.1,66.0,84,29.97,10.0,SE,3.5,-,N/A,,Overcast,140,2013-10-23 11:53:00
2:53 AM,71.1,66.9,87,29.96,10.0,SW,3.5,-,0.00,,Overcast,220,2013-10-23 12:53:00
3:53 AM,71.1,66.9,87,29.95,10.0,SW,4.6,-,0.02,,Overcast,220,2013-10-23 13:53:00
4:53 AM,71.1,66.0,84,29.95,10.0,WSW,4.6,-,N/A,,Overcast,250,2013-10-23 14:53:00
5:53 AM,70.0,64.9,84,29.97,10.0,SW,3.5,-,N/A,,Mostly Cloudy,230,2013-10-23 15:53:00
6:53 AM,71.1,64.9,81,29.99,10.0,WSW,4.6,-,N/A,,Mostly Cloudy,240,2013-10-23 16:53:00
7:53 AM,73.9,66.9,79,30.01,10.0,ESE,3.5,-,0.00,Rain,Light Rain,110,2013-10-23 17:53:00
8:11 AM,72.0,70.0,93,30.02,1.8,SE,6.9,-,0.01,Rain,Heavy Rain,140,2013-10-23 18:11:00
8:22 AM,73.0,71.1,93,30.02,7.0,South,4.6,-,0.12,Rain,Light Rain,190,2013-10-23 18:22:00
8:53 AM,73.0,72.0,96,30.03,4.0,SSE,3.5,-,0.14,Rain,Light Rain,160,2013-10-23 18:53:00
9:00 AM,73.9,72.0,93,30.03,4.0,SSE,4.6,-,0.00,Rain,Light Rain,160,2013-10-23 19:00:00
9:07 AM,73.9,72.0,93,30.03,6.0,SSE,4.6,-,0.01,Rain,Light Rain,150,2013-10-23 19:07:00
9:53 AM,75.9,72.0,87,30.03,10.0,West,5.8,-,0.03,,Mostly Cloudy,280,2013-10-23 19:53:00
10:53 AM,82.0,69.1,65,30.01,10.0,North,8.1,-,N/A,,Mostly Cloudy,350,2013-10-23 20:53:00
11:53 AM,82.0,70.0,67,29.98,10.0,Variable,3.5,-,N/A,,Scattered Clouds,0,2013-10-23 21:53:00
12:53 PM,84.0,66.0,55,29.95,10.0,NE,9.2,-,N/A,,Scattered Clouds,40,2013-10-23 22:53:00
1:53 PM,84.0,64.9,53,29.93,10.0,NE,9.2,-,N/A,,Mostly Cloudy,50,2013-10-23 23:53:00
2:53 PM,84.0,66.9,56,29.93,10.0,NE,8.1,-,N/A,,Mostly Cloudy,40,2013-10-24 00:53:00
3:53 PM,81.0,71.1,72,29.93,10.0,North,5.8,-,N/A,,Overcast,360,2013-10-24 01:53:00
4:53 PM,80.1,69.1,69,29.94,10.0,NE,6.9,-,N/A,,Overcast,40,2013-10-24 02:53:00
5:53 PM,79.0,69.1,72,29.96,10.0,NE,5.8,-,N/A,,Overcast,40,2013-10-24 03:53:00
6:20 PM,78.1,70.0,76,29.96,10.0,ENE,4.6,-,N/A,,Overcast,60,2013-10-24 04:20:00
6:53 PM,78.1,70.0,76,29.97,10.0,NE,4.6,-,N/A,,Overcast,40,2013-10-24 04:53:00
7:53 PM,77.0,70.0,79,29.99,10.0,NE,5.8,-,N/A,,Mostly Cloudy,40,2013-10-24 05:53:00
8:33 PM,75.9,71.1,85,30.00,10.0,Calm,Calm,-,N/A,,Mostly Cloudy,0,2013-10-24 06:33:00
8:53 PM,77.0,71.1,82,30.00,10.0,Calm,Calm,-,0.00,,Overcast,0,2013-10-24 06:53:00
9:32 PM,75.0,71.1,87,30.01,10.0,SW,3.5,-,N/A,,Overcast,220,2013-10-24 07:32:00
9:53 PM,75.0,71.1,87,30.01,10.0,WSW,4.6,-,N/A,,Mostly Cloudy,240,2013-10-24 07:53:00
10:53 PM,73.0,71.1,93,30.00,10.0,SW,4.6,-,N/A,,Partly Cloudy,230,2013-10-24 08:53:00
11:53 PM,72.0,70.0,93,29.99,10.0,Calm,Calm,-,N/A,,Mostly Cloudy,0,2013-10-24 09:53:00